#timestamp,LO_Frequency,Hit,StdDev 
1630540815.9,286046999.7,N
1630540835.7,286046999.9,N
1630540855.5,286047002.7,N
1630540875.4,286047002.6,N
1630540895.2,286047002.7,N
1630540915.0,286047001.4,N
1630540915.9,286047001.4,N
1630540935.8,286047002.2,N
1630540955.6,286047002.4,N
1630540975.5,286047000.1,N
1630540995.3,286047002.8,N
1630541015.1,286047000.0,N
1630541035.9,286047002.3,N
1630541055.7,286047002.0,N
1630541075.5,286047002.1,N
1630541095.4,286047001.7,N
1630541115.2,286047003.4,Y
1630541135.1,286047000.0,P
1630541136.0,286047000.0,N
1630541155.8,286047000.9,N
1630541175.6,286047000.7,N
1630541195.5,286047000.8,N
1630541215.3,286047001.1,N
1630541235.1,286046999.0,N
1630541255.9,286047001.0,N
1630541275.7,286046999.8,N
1630541295.6,286047001.2,N
1630541315.4,286046999.7,N
1630541335.2,286047002.3,Y
1630541355.1,286047002.0,P
1630541356.0,286047002.0,N
1630541375.8,286046999.9,N
1630541395.7,286046999.7,N
1630541415.5,286047000.1,N
1630541435.3,286046999.8,N
1630541455.2,286047000.4,N
1630541475.0,286047000.5,N
1630541475.9,286047000.5,N
1630541495.7,286046999.9,N
1630541515.6,286047000.8,N
1630541535.4,286046998.1,N
1630541555.3,286046998.4,N
1630541575.1,286046998.2,N
1630541576.0,286046998.2,N
1630541595.8,286046998.7,N
1630541615.7,286047000.3,N
1630541635.5,286047002.1,N
1630541655.3,286047001.5,N
1630541675.2,286047004.4,Y
1630541695.0,286046999.7,P
1630541695.9,286046999.7,N
1630541715.8,286046998.1,P
1630541735.6,286047000.3,N
1630541755.4,286047000.5,N
1630541775.3,286047000.4,N
1630541795.1,286046999.9,N
1630541815.9,286047002.8,Y
1630541835.7,286047000.5,P
1630541855.5,286047000.8,N
1630541875.4,286047001.2,N
1630541895.2,286047000.9,N
1630541915.0,286046998.4,Y
1630541915.9,286046998.4,P
1630541935.8,286047000.4,N
1630541955.6,286046998.8,N
1630541975.5,286047000.1,N
1630541995.3,286047000.3,N
1630542015.1,286047002.7,Y
1630542035.9,286046999.9,P
1630542055.7,286047000.4,P
1630542075.5,286047000.2,N
1630542095.4,286047002.1,Y
1630542115.2,286047000.9,P
1630542135.1,286046999.8,N
1630542136.0,286046999.8,N
1630542155.8,286046999.7,N
1630542175.6,286047002.8,Y
1630542195.5,286047002.3,P
1630542215.3,286047001.8,N
1630542235.2,286047002.4,N
1630542255.9,286047001.8,N
1630542275.7,286047002.1,N
1630542295.6,286047000.1,N
1630542315.4,286047002.5,N
1630542335.2,286047002.8,N
1630542355.1,286047002.5,N
1630542356.0,286047002.5,N
1630542375.8,286047001.4,N
1630542395.7,286047001.7,N
1630542415.5,286047004.0,Y
1630542435.3,286047000.0,P
1630542455.2,286047001.0,N
1630542475.0,286047000.8,N
1630542475.9,286047000.8,N
1630542495.7,286046998.2,Y
1630542515.1,286046998.7,P
1630542516.0,286046998.7,N
1630542535.8,286046996.9,P
1630542555.7,286046999.6,N
1630542575.5,286046998.9,N
1630542595.3,286046998.3,N
1630542615.2,286046998.8,N
1630542635.0,286046999.6,N
1630542635.9,286046999.6,N
1630542655.7,286046998.8,N
1630542675.6,286046999.2,N
1630542695.4,286046999.3,N
1630542715.3,286046998.6,N
1630542735.1,286046997.0,Y
1630542736.0,286046997.0,P
1630542755.8,286046998.5,N
1630542775.7,286047001.0,N
1630542795.5,286047001.1,N
1630542815.3,286047000.6,N
1630542835.2,286047001.1,N
1630542885.0,286047003.9,E
1630542895.9,286047000.4,N
1630542915.7,286046998.9,P
1630542935.5,286046998.4,N
1630542955.4,286046998.7,N
1630542975.2,286046998.7,N
1630542995.1,286046998.2,N
1630542996.0,286046998.2,N
1630543015.8,286047000.8,N
1630543035.6,286046998.3,N
1630543055.5,286047000.2,N
1630543075.3,286047002.7,N
1630543095.1,286047002.5,N
1630543115.9,286047002.3,N
1630543135.7,286047002.8,N
1630543155.6,286047002.6,N
1630543175.4,286047000.2,N
1630543195.2,286047000.3,N
1630543215.1,286046999.9,N
1630543216.0,286046999.9,N
1630543235.8,286047002.8,N
1630543255.6,286047000.0,N
1630543275.5,286046999.9,N
1630543295.3,286046999.7,N
1630543315.2,286047002.6,N
1630543335.9,286047001.9,N
1630543355.7,286047002.3,N
1630543375.6,286047001.5,N
1630543395.4,286047003.9,N
1630543415.2,286047002.8,N
1630543435.1,286047000.0,N
1630543436.0,286047000.0,N
1630543455.8,286047001.0,N
1630543475.7,286047000.9,N
1630543495.3,286047000.0,N
1630543515.1,286047000.8,N
1630543535.9,286047000.3,N
1630543555.7,286047000.3,N
1630543575.6,286046999.9,N
1630543595.7,286046999.9,N
1630543615.5,286047000.4,N
1630543635.3,286047002.3,N
1630543655.2,286046999.9,N
1630543675.0,286047000.3,N
1630543675.9,286047000.3,N
1630543695.7,286046999.9,N
1630543715.6,286047001.1,N
1630543735.4,286047001.2,N
1630543755.9,286047000.4,N
1630543775.7,286047000.6,N
1630543795.6,286046999.9,N
1630543815.4,286046999.9,N
1630543835.2,286047000.0,N
1630543855.1,286047000.0,N
1630543856.0,286047000.0,N
1630543875.8,286046998.5,N
1630543895.6,286047001.2,N
1630543915.5,286046999.4,N
1630543935.3,286046997.3,N
1630543955.2,286046996.9,Y
1630543975.9,286046997.1,P
1630543995.7,286046999.6,N
1630544015.6,286046997.1,N
1630544035.4,286046997.3,N
1630544055.2,286046996.8,N
1630544075.1,286046997.9,N
1630544076.0,286046997.9,N
1630544095.8,286046997.2,N
1630544115.7,286046997.0,N
1630544135.5,286046998.0,N
1630544155.3,286046998.0,N
1630544175.2,286046997.8,N
1630544195.0,286046996.9,Y
1630544195.9,286046996.9,P
1630544215.8,286046998.7,N
1630544235.6,286046997.0,P
1630544255.4,286046996.9,Y
1630544275.3,286047000.9,P
1630544295.1,286046999.8,N
1630544315.9,286047000.1,N
1630544335.7,286046999.8,N
1630544355.5,286046999.9,N
1630544375.4,286047000.5,N
1630544395.2,286047000.0,N
